Wetbulb
64.72 63.69 62.89 63.26 63.40 61.66 61.25 60.28 59.66 56.81 55.18 54.38 51.58 49.09 48.55 47.69 46.31 45.11 44.05 42.87 41.93 42.52 42.93 42.77 42.55 44.07 44.92 43.12 42.57 42.16 39.95 38.66 34.71 35.88 37.84 38.27 37.50 37.48 38.54 38.13 39.09 36.28 36.31
64.60 64.00 62.63 61.76 61.34 59.58 58.57 57.63 55.99 53.45 52.40 50.69 49.08 47.87 47.19 45.28 44.87 43.26 42.21 41.98 42.06 41.76 42.07 41.60 42.90 46.22 44.00 43.74 41.98 40.07 39.03 38.37 36.09 34.89 36.74 36.43 36.22 37.03 36.92 35.96 38.77 38.77 35.93
61.90 61.63 59.32 57.21 55.05 53.09 51.48 50.21 49.29 49.12 48.96 48.60 47.72 45.69 45.09 44.68 43.94 43.06 42.66 42.30 42.01 42.08 42.50 43.49 44.89 43.70 41.99 42.28 42.10 40.85 39.07 41.51 38.48 37.13 35.95 36.02 35.93 35.84 34.90 35.60 35.95 34.61 37.55
58.82 57.21 54.02 52.74 51.15 49.84 49.21 48.72 48.67 48.04 46.73 45.54 45.49 44.82 44.83 44.11 43.39 42.94 42.38 42.23 42.81 43.56 43.84 42.99 43.32 43.29 42.61 41.88 40.99 39.50 40.11 37.88 38.22 37.28 36.84 35.35 34.18 35.68 34.78 31.78 32.04 33.04 32.10
54.13 52.25 50.64 50.08 50.52 49.30 48.03 47.86 47.02 46.09 45.58 44.94 44.37 43.97 43.73 43.44 42.61 42.33 43.25 43.09 42.39 42.23 43.17 44.02 43.53 43.31 42.76 41.42 41.43 38.16 36.98 37.24 37.06 35.64 34.93 34.59 33.01 31.86 31.30 33.51 32.35 31.26 31.00
51.24 50.45 50.75 50.63 50.18 49.50 47.70 46.54 45.84 45.53 45.39 45.11 43.12 42.53 42.37 42.81 40.38 40.48 40.98 41.58 42.27 42.35 40.66 39.38 39.87 40.74 40.40 39.26 38.51 38.25 38.33 37.31 35.82 35.46 35.19 33.78 33.67 33.71 33.39 32.21 31.86 30.86 27.34
50.08 50.12 50.94 51.02 49.65 48.89 48.48 47.39 46.45 45.04 44.61 42.92 42.06 42.20 42.89 42.87 39.17 39.62 38.60 40.85 39.26 37.26 36.99 37.29 38.41 40.40 38.43 38.95 37.82 37.12 36.31 36.20 33.60 35.45 33.52 34.21 33.90 35.02 35.50 32.36 31.24 31.43 29.84
50.77 50.14 49.36 48.67 47.68 47.28 46.25 45.54 45.69 45.54 44.57 44.28 43.46 43.21 43.06 43.28 38.77 36.93 35.41 35.84 36.10 36.63 36.83 36.58 35.38 35.02 35.09 34.32 32.88 31.73 32.87 34.94 36.22 36.21 33.39 34.61 35.01 35.70 35.80 34.28 33.42 30.71 27.82
48.23 48.17 48.30 47.66 46.23 46.32 45.64 45.37 45.03 44.43 44.05 44.07 43.98 42.25 38.84 34.92 34.06 33.57 34.74 33.78 33.45 32.24 34.18 33.68 33.30 31.85 33.65 34.23 30.93 29.75 31.00 32.17 35.86 36.86 36.94 36.75 36.82 36.94 35.83 33.45 30.19 25.72 21.68
48.15 47.72 47.53 47.56 46.90 45.23 44.77 44.59 44.62 44.06 41.69 40.62 39.91 39.73 37.19 32.21 33.66 32.94 32.25 29.57 28.60 27.79 28.89 30.12 31.64 31.40 32.26 32.20 29.74 28.95 27.64 27.83 28.93 30.71 31.49 33.13 35.33 33.93 33.40 32.56 30.62 28.25 26.10
47.99 47.56 47.22 46.69 45.66 45.03 43.38 41.88 40.71 39.62 39.89 36.41 34.60 34.51 35.75 34.02 30.94 30.97 30.22 27.00 25.79 25.56 25.94 26.36 27.26 30.48 30.75 30.48 30.25 27.71 27.67 29.49 29.67 30.11 30.24 31.28 33.22 32.69 31.55 30.86 29.76 29.69 27.58
46.41 45.17 44.26 43.92 43.00 41.88 40.11 39.01 38.46 36.61 34.24 32.58 31.11 30.98 31.87 31.20 30.89 29.56 28.97 27.62 27.22 25.19 25.21 25.76 26.66 28.75 29.40 29.67 29.54 30.51 31.28 30.22 29.88 30.15 29.31 29.04 30.13 32.51 34.34 32.03 30.92 29.63 29.84
43.55 42.22 40.94 40.47 40.39 39.82 37.12 35.39 34.33 34.01 31.12 29.68 28.89 29.11 28.99 28.90 28.52 28.24 27.17 26.59 26.88 24.92 25.31 25.99 26.80 27.58 28.52 28.97 30.91 31.52 29.89 29.81 28.98 29.39 29.47 29.33 30.82 33.27 34.14 32.11 31.97 30.14 29.08
40.53 39.25 38.31 36.35 35.43 35.13 34.86 34.22 33.01 30.16 28.96 28.68 28.60 27.19 26.65 26.52 25.55 23.91 23.38 22.93 25.29 24.76 24.07 23.56 24.03 25.78 25.27 26.14 26.25 27.60 28.21 29.37 29.41 31.18 30.74 31.16 32.81 31.81 32.08 32.42 29.73 28.86 27.36
38.60 36.85 34.86 33.92 33.94 33.24 30.38 30.06 28.39 25.81 26.47 26.92 26.31 25.80 22.63 21.22 22.38 22.39 22.30 22.13 21.80 23.14 21.58 22.47 23.26 23.37 22.69 22.91 23.11 24.23 25.04 25.66 26.06 29.76 30.88 30.65 31.69 30.89 31.23 32.12 30.61 29.47 27.48
34.87 33.83 32.38 31.75 31.22 32.19 29.37 27.09 28.08 25.96 26.40 25.84 24.96 23.76 23.91 23.34 22.80 22.75 22.98 23.74 24.10 24.39 21.27 20.37 18.76 18.90 19.39 20.13 20.15 20.67 21.30 22.37 24.23 25.80 29.53 31.09 30.33 29.19 30.09 31.33 29.99 27.63 26.71
31.31 31.90 30.40 30.60 30.21 29.14 28.32 28.19 23.58 24.73 25.97 25.92 24.94 23.74 22.76 21.32 21.94 22.33 22.62 23.62 24.09 24.49 17.28 18.06 15.96 16.94 17.81 19.19 19.22 19.60 19.52 20.85 22.79 23.28 25.20 28.11 26.81 26.91 26.47 29.30 28.83 27.78 27.08
29.72 30.54 30.34 29.69 28.97 28.60 27.80 27.02 26.67 26.16 24.19 23.27 24.81 24.14 23.71 21.81 21.52 22.11 22.93 23.14 20.25 20.79 19.10 17.42 15.64 16.64 17.53 17.61 17.44 17.90 19.03 19.71 20.06 20.56 22.23 24.34 27.60 24.43 23.95 27.68 28.54 27.66 26.54
29.72 29.25 29.16 27.83 26.19 25.68 26.56 26.47 26.01 24.88 24.54 23.96 24.62 23.37 21.15 21.19 21.14 22.02 23.67 18.39 14.90 16.35 17.87 17.05 15.65 16.10 15.64 16.16 16.30 16.70 17.18 18.01 17.30 18.02 19.90 21.69 21.99 27.84 28.73 27.81 29.13 28.02 27.96
24.97 25.79 27.46 26.52 24.85 25.69 25.53 24.84 24.71 24.27 23.80 23.31 22.16 21.52 20.43 16.05 12.30 14.08 16.13 13.32 13.00 14.87 14.93 15.48 15.70 15.57 15.01 15.20 15.24 15.05 15.10 15.57 16.11 16.64 17.49 19.58 19.89 20.17 27.03 23.33 27.23 28.89 27.46
23.33 22.54 22.22 24.83 24.56 23.59 23.45 23.12 22.85 22.36 21.61 21.01 20.02 15.82 11.92 13.91 13.21 16.04 15.44 13.72 13.99 13.58 12.08 14.11 13.80 13.04 13.67 13.25 14.21 13.21 13.42 13.23 13.83 16.24 16.25 17.09 17.18 16.85 20.06 22.50 27.86 28.99 27.74
23.79 22.99 23.22 22.68 22.57 21.96 20.98 20.79 21.02 20.20 20.16 19.40 18.98 18.77 15.14 14.36 16.68 15.58 14.20 12.09 9.96 11.58 12.99 12.48 12.27 12.67 12.43 12.66 11.42 10.73 12.01 11.12 12.36 14.41 14.14 14.80 15.58 15.94 17.14 19.34 24.08 27.78 27.20
22.01 21.13 21.01 20.38 20.41 16.10 18.42 20.00 19.45 19.07 18.57 17.24 16.88 16.62 16.59 14.97 13.80 12.75 11.92 9.33 10.90 9.73 11.08 11.71 10.31 11.08 11.19 10.29 11.69 13.15 11.39 11.66 12.07 12.91 13.10 13.59 13.68 13.87 14.10 15.80 18.38 27.00 26.44
20.89 20.45 19.50 19.76 19.61 16.66 17.85 18.57 17.46 16.58 16.38 15.58 15.77 15.13 14.91 13.50 10.57 9.42 9.29 8.80 7.91 6.93 7.77 10.36 9.43 8.19 10.02 11.82 11.90 12.39 12.54 12.26 13.09 14.20 14.45 11.83 11.12 12.27 14.28 15.58 16.86 21.09 26.35
20.29 19.68 18.89 18.38 18.01 17.80 17.25 16.91 16.69 15.79 15.60 15.14 14.40 14.27 13.27 12.95 12.47 10.01 7.78 8.40 6.49 7.36 8.38 6.26 8.09 10.04 9.07 8.76 9.05 10.21 12.33 14.16 12.64 12.73 12.88 12.36 11.45 12.01 12.83 14.43 15.93 17.60 26.23
18.84 17.80 17.19 17.32 16.75 16.57 15.97 14.81 14.07 14.21 13.58 13.03 13.03 11.19 11.27 11.16 10.39 7.57 9.12 6.38 8.64 5.61 5.01 7.37 7.15 7.27 7.91 9.88 11.34 12.34 12.40 12.85 12.86 13.45 14.30 13.91 12.51 11.72 12.96 14.72 17.17 18.03 25.61
MSLP
1008.45 1009.45 1010.35 1011.28 1011.84 1012.75 1013.12 1013.93 1014.80 1015.73 1016.49 1017.18 1018.03 1018.84 1019.57 1020.14 1020.68 1021.19 1022.16 1022.56 1023.08 1023.60 1023.98 1024.08 1023.99 1023.85 1023.68 1023.29 1023.16 1023.12 1023.18 1023.29 1023.22 1022.72 1022.47 1022.25 1022.12 1022.12 1021.90 1022.02 1022.11 1022.46 1022.70
1008.07 1008.82 1010.15 1011.22 1011.73 1012.45 1013.31 1014.34 1015.26 1016.08 1016.70 1017.44 1018.29 1018.98 1019.67 1020.39 1020.95 1021.55 1022.26 1022.83 1023.31 1023.62 1023.64 1023.77 1023.52 1023.31 1022.97 1022.79 1022.74 1022.82 1022.80 1022.65 1022.80 1022.38 1022.12 1021.87 1021.64 1021.41 1021.23 1021.34 1021.33 1021.45 1021.91
1008.23 1009.35 1011.20 1012.06 1012.73 1013.61 1014.52 1015.30 1015.96 1016.62 1017.37 1017.97 1018.57 1019.28 1019.95 1020.49 1021.08 1021.80 1022.21 1022.68 1023.00 1023.23 1023.34 1023.28 1023.09 1022.79 1022.67 1022.55 1022.38 1022.22 1022.11 1021.88 1021.81 1021.70 1021.27 1020.95 1020.72 1020.66 1020.61 1020.54 1020.58 1020.82 1021.06
1009.62 1010.64 1012.05 1012.88 1013.59 1014.53 1015.38 1016.10 1016.69 1017.18 1017.82 1018.50 1019.10 1019.63 1020.33 1020.66 1021.34 1021.65 1022.28 1022.73 1022.99 1023.06 1023.08 1022.93 1022.74 1022.58 1022.33 1022.10 1021.92 1021.73 1021.47 1021.46 1021.29 1021.09 1020.74 1020.61 1020.42 1020.18 1020.24 1020.39 1020.42 1020.50 1020.68
1010.76 1011.60 1012.68 1013.54 1014.53 1015.24 1015.87 1016.42 1017.02 1017.69 1018.27 1018.80 1019.27 1019.92 1020.50 1021.00 1021.58 1021.96 1022.38 1022.74 1022.84 1022.84 1022.66 1022.42 1022.14 1021.88 1021.60 1021.53 1021.28 1021.08 1021.03 1020.94 1020.72 1020.56 1020.28 1020.13 1020.00 1019.97 1020.18 1019.97 1020.03 1020.34 1020.15
1011.47 1012.36 1012.85 1013.64 1014.51 1015.28 1016.10 1016.77 1017.43 1018.00 1018.48 1019.00 1019.60 1020.02 1020.58 1021.15 1021.68 1022.02 1022.37 1022.61 1022.63 1022.52 1022.21 1021.91 1021.66 1021.38 1021.22 1020.97 1020.69 1020.45 1020.42 1020.23 1019.91 1019.81 1019.39 1019.34 1019.14 1019.30 1019.28 1019.32 1019.51 1020.14 1020.41
1011.61 1012.45 1013.28 1013.86 1014.72 1015.40 1015.96 1016.67 1017.36 1018.01 1018.62 1019.28 1019.81 1020.30 1020.77 1021.19 1021.63 1021.82 1022.17 1022.43 1022.29 1022.18 1022.02 1021.79 1021.53 1021.30 1021.14 1020.88 1020.59 1020.32 1019.97 1019.62 1019.34 1019.04 1018.87 1018.51 1018.37 1018.38 1018.31 1018.42 1018.99 1019.48 1019.78
1012.04 1012.84 1013.52 1014.20 1014.83 1015.44 1016.22 1016.95 1017.57 1018.14 1018.81 1019.40 1019.78 1020.14 1020.37 1020.80 1021.46 1021.99 1022.26 1022.47 1022.29 1022.22 1022.05 1021.82 1021.64 1021.53 1021.55 1021.40 1021.09 1020.57 1020.05 1019.56 1019.02 1018.53 1018.13 1017.68 1017.50 1017.44 1017.51 1017.49 1017.95 1018.44 1018.61
1012.38 1013.00 1013.67 1014.30 1015.05 1015.75 1016.50 1017.18 1017.72 1018.18 1018.57 1018.97 1019.27 1019.60 1020.42 1021.56 1021.95 1022.09 1022.01 1022.18 1022.27 1022.32 1022.21 1022.05 1021.90 1021.74 1021.62 1021.55 1021.28 1020.74 1019.85 1019.10 1018.58 1018.05 1017.54 1017.01 1016.53 1016.09 1016.06 1016.67 1017.10 1018.18 1018.26
1012.28 1013.02 1013.86 1014.43 1015.06 1015.82 1016.50 1016.98 1017.34 1017.71 1018.18 1018.65 1019.21 1019.83 1020.44 1021.65 1022.08 1022.24 1022.27 1022.44 1022.67 1022.82 1022.69 1022.33 1022.00 1021.81 1021.53 1021.46 1021.20 1020.71 1019.77 1019.03 1018.44 1017.61 1017.16 1016.64 1016.13 1015.98 1015.82 1015.99 1016.64 1017.01 1017.70
1012.52 1013.19 1013.85 1014.51 1015.12 1015.76 1016.34 1016.89 1017.29 1017.87 1018.61 1019.42 1020.12 1020.45 1020.86 1021.34 1022.12 1022.32 1022.64 1022.91 1023.11 1023.04 1022.67 1022.28 1022.02 1021.77 1021.45 1021.13 1020.83 1020.32 1019.44 1018.57 1017.86 1017.42 1016.78 1016.09 1015.49 1015.24 1015.30 1015.41 1015.72 1016.15 1016.90
1012.66 1013.44 1014.18 1014.79 1015.40 1016.09 1016.66 1017.17 1017.66 1018.44 1019.27 1020.01 1020.53 1020.91 1021.11 1021.63 1022.16 1022.55 1022.83 1023.07 1023.10 1023.05 1022.80 1022.44 1022.01 1021.53 1020.95 1020.33 1019.73 1018.99 1018.24 1017.66 1017.19 1016.58 1016.12 1015.57 1015.01 1014.49 1014.48 1014.60 1014.78 1015.37 1015.88
1013.00 1013.76 1014.53 1015.16 1015.71 1016.30 1017.07 1017.71 1018.41 1019.14 1019.83 1020.50 1020.96 1021.42 1021.84 1022.01 1022.45 1022.78 1022.94 1023.20 1023.15 1023.08 1022.87 1022.42 1021.85 1021.16 1020.46 1019.64 1018.96 1018.21 1017.40 1016.86 1016.13 1015.63 1015.06 1014.60 1014.33 1013.87 1013.80 1014.12 1014.34 1014.79 1015.38
1013.43 1014.29 1015.01 1015.66 1016.36 1016.89 1017.63 1018.20 1019.16 1020.02 1020.65 1021.12 1021.55 1021.99 1022.39 1022.73 1023.16 1023.46 1023.60 1023.49 1023.28 1023.10 1022.81 1022.30 1021.61 1020.89 1020.23 1019.74 1018.96 1018.30 1017.67 1016.95 1016.31 1014.53 1014.29 1013.89 1013.61 1013.22 1012.99 1013.50 1014.21 1014.58 1015.02
1013.85 1014.68 1015.45 1016.14 1016.67 1017.40 1018.67 1019.37 1020.11 1020.93 1021.14 1021.37 1022.07 1022.49 1022.76 1023.27 1023.87 1024.23 1024.28 1023.74 1023.35 1023.01 1022.57 1021.99 1021.30 1020.79 1020.41 1019.88 1019.30 1018.76 1018.08 1017.23 1016.23 1015.14 1013.83 1013.45 1013.06 1012.87 1013.14 1013.46 1013.76 1014.24 1014.61
1014.21 1015.17 1015.98 1016.54 1017.10 1017.66 1018.80 1019.95 1020.71 1021.16 1021.70 1022.13 1022.52 1023.00 1023.30 1023.52 1023.98 1024.06 1023.88 1023.79 1023.23 1022.68 1022.25 1021.86 1021.39 1021.13 1020.81 1020.28 1019.64 1018.99 1018.56 1017.80 1016.90 1015.88 1014.19 1013.53 1012.85 1012.92 1013.04 1013.09 1013.43 1013.78 1014.15
1015.55 1016.21 1016.79 1017.26 1017.71 1018.23 1018.81 1019.66 1020.82 1021.70 1021.99 1022.31 1022.52 1022.92 1023.18 1023.59 1023.69 1023.79 1023.45 1023.45 1022.89 1022.41 1022.13 1021.84 1021.59 1021.41 1021.12 1020.70 1020.26 1019.74 1019.00 1018.39 1017.61 1016.62 1015.39 1014.21 1013.34 1013.10 1013.02 1013.02 1013.11 1013.36 1013.63
1016.42 1017.14 1017.62 1018.17 1018.71 1019.03 1019.38 1019.93 1020.44 1021.03 1021.80 1022.22 1022.49 1022.55 1022.76 1023.41 1023.70 1023.53 1023.17 1022.90 1022.79 1022.49 1022.36 1022.10 1021.95 1021.82 1021.48 1021.07 1020.68 1020.15 1019.42 1018.73 1018.08 1017.24 1016.14 1014.98 1013.83 1012.94 1012.77 1012.68 1012.71 1012.78 1013.01
1017.09 1017.88 1018.37 1018.98 1019.59 1020.06 1020.15 1020.53 1020.82 1021.29 1021.74 1021.99 1021.96 1022.39 1022.82 1023.24 1023.30 1023.25 1022.85 1022.98 1023.22 1023.05 1022.67 1022.40 1022.24 1021.98 1021.72 1021.38 1020.96 1020.42 1019.78 1019.02 1018.51 1017.81 1016.64 1015.56 1014.58 1013.15 1012.25 1012.05 1012.04 1011.95 1012.19
1018.33 1018.91 1019.12 1019.69 1020.01 1020.40 1020.90 1021.06 1021.18 1021.44 1021.78 1022.04 1022.12 1022.37 1022.74 1023.15 1023.40 1023.51 1023.08 1023.14 1023.18 1023.00 1022.85 1022.72 1022.46 1022.17 1021.84 1021.44 1021.02 1020.50 1019.87 1019.31 1018.66 1017.98 1017.09 1015.99 1015.11 1014.16 1012.13 1011.74 1011.64 1011.39 1011.48
1019.51 1020.12 1020.22 1020.31 1020.65 1021.03 1021.45 1021.59 1021.65 1021.86 1022.06 1022.20 1022.35 1022.78 1023.15 1023.39 1023.47 1023.36 1023.20 1023.18 1023.21 1023.18 1023.03 1022.89 1022.62 1022.34 1021.99 1021.50 1021.08 1020.67 1020.19 1019.63 1019.12 1018.17 1017.43 1016.46 1015.68 1014.66 1013.64 1012.64 1011.54 1011.13 1011.06
1020.01 1020.63 1020.87 1021.07 1021.27 1021.64 1021.91 1022.16 1022.12 1022.22 1022.33 1022.35 1022.50 1022.68 1022.95 1023.13 1023.22 1023.24 1023.24 1023.27 1023.29 1023.13 1022.96 1022.86 1022.58 1022.22 1021.93 1021.55 1021.25 1020.75 1020.18 1019.69 1019.11 1018.36 1017.65 1016.86 1016.08 1015.32 1014.33 1013.22 1011.89 1010.63 1010.84
1020.90 1021.11 1021.41 1021.74 1021.77 1022.21 1022.51 1022.55 1022.55 1022.63 1022.67 1022.82 1022.94 1023.02 1023.04 1023.14 1023.31 1023.37 1023.39 1023.36 1023.23 1023.10 1022.98 1022.82 1022.53 1022.03 1021.82 1021.54 1021.07 1020.51 1020.06 1019.51 1019.08 1018.59 1017.76 1016.93 1016.21 1015.47 1014.77 1013.73 1012.55 1010.96 1010.75
1021.52 1021.62 1021.82 1021.99 1022.01 1022.46 1022.78 1022.81 1022.86 1022.89 1022.91 1022.98 1023.03 1023.12 1023.24 1023.32 1023.37 1023.41 1023.40 1023.40 1023.12 1023.03 1022.80 1022.54 1022.50 1022.02 1021.42 1020.92 1020.57 1020.14 1019.69 1019.13 1018.57 1017.90 1017.32 1016.92 1016.19 1015.41 1014.55 1013.66 1012.70 1011.67 1010.45
1021.94 1021.96 1022.17 1022.37 1022.54 1022.65 1022.79 1022.86 1022.92 1023.00 1023.05 1023.10 1023.31 1023.39 1023.43 1023.48 1023.46 1023.46 1023.47 1023.27 1023.16 1022.95 1022.75 1022.57 1022.07 1021.45 1021.05 1020.50 1020.03 1019.43 1018.80 1018.19 1017.80 1017.32 1016.78 1016.28 1015.59 1014.89 1014.23 1013.42 1012.44 1011.50 1010.32
1022.29 1022.48 1022.77 1022.88 1022.86 1022.87 1022.94 1023.03 1023.08 1023.08 1023.16 1023.26 1023.43 1023.66 1023.73 1023.69 1023.63 1023.62 1023.51 1023.46 1023.14 1023.10 1022.71 1022.15 1021.77 1021.17 1020.56 1019.79 1019.06 1018.43 1017.83 1017.20 1016.59 1016.04 1015.60 1015.03 1014.51 1013.95 1013.43 1012.67 1011.81 1011.02 1009.90
Wind_Speed
13 10 10 11 8 4 5 6 6 7 8 8 8 8 9 8 9 9 6 7 7 5 4 5 8 8 7 5 4 4 4 4 6 4 5 6 4 5 5 5 6 6 5
9 12 8 8 5 6 8 8 8 8 7 8 8 8 7 9 9 9 8 7 6 6 6 7 8 8 7 6 5 6 5 5 5 11 7 5 7 7 6 5 4 4 4
8 12 12 8 10 10 9 9 8 8 8 7 8 9 9 9 8 7 6 7 6 6 6 7 9 7 6 5 6 7 5 7 6 7 8 5 5 4 5 4 4 4 5
12 12 11 10 11 10 9 9 8 8 9 9 8 9 7 8 7 8 6 4 4 5 5 6 8 10 9 9 8 7 8 7 7 7 8 7 4 5 4 4 3 3 3
12 12 11 12 10 10 10 9 10 9 9 9 10 9 7 6 4 5 4 4 2 4 8 9 9 12 16 13 9 7 7 9 10 10 11 10 6 3 5 4 4 3 4
11 12 11 11 11 11 11 10 10 10 10 9 7 7 7 4 8 7 4 1 5 8 7 6 7 10 10 13 14 16 16 13 14 11 11 12 12 8 5 4 3 3 5
11 11 11 12 12 12 11 12 11 9 9 8 6 6 6 5 10 9 6 4 5 5 6 6 7 8 9 10 12 15 12 14 13 13 13 13 12 12 10 4 3 4 6
12 12 12 12 12 11 10 9 9 7 7 7 6 6 5 2 9 8 2 5 4 6 7 8 9 10 11 12 15 14 14 12 13 9 9 13 12 11 7 7 8 7 3
12 12 12 12 11 10 10 8 7 5 6 6 6 5 12 10 12 9 6 5 5 6 7 8 10 11 14 18 13 15 16 14 14 18 18 18 19 17 8 3 4 3 3
13 13 12 11 10 9 8 8 7 6 5 4 6 7 10 9 12 14 8 4 5 5 6 9 11 12 16 19 15 13 16 15 15 16 15 15 10 8 9 7 5 6 3
13 11 11 9 9 9 7 6 5 5 8 7 7 5 7 7 10 16 14 5 3 5 6 7 7 17 21 24 24 15 17 18 18 13 12 11 9 6 6 8 8 6 7
12 11 10 9 8 7 7 5 6 6 6 6 5 4 4 6 12 13 13 12 11 5 7 8 10 23 26 26 21 23 25 19 11 12 11 12 9 7 7 7 9 7 6
12 11 10 8 7 6 6 5 5 6 5 4 3 2 3 3 4 15 15 15 12 6 7 14 24 25 25 16 18 19 13 9 9 9 9 10 10 9 6 4 5 7 6
11 11 9 8 7 6 5 4 5 5 3 3 3 2 3 3 6 6 6 6 10 9 10 11 13 15 8 11 11 13 10 10 14 9 7 8 8 3 4 5 5 4 3
11 9 8 5 7 6 9 5 7 6 4 2 4 3 3 2 5 7 9 7 6 8 10 8 8 6 8 9 9 10 11 12 11 13 6 8 7 3 3 5 3 4 5
9 7 5 4 4 7 8 6 11 10 10 10 8 4 2 4 6 10 14 15 17 16 7 7 4 5 7 9 9 10 10 13 12 12 10 5 2 1 2 4 3 3 4
8 8 4 4 4 4 3 5 6 4 6 9 9 7 5 2 5 11 13 14 18 15 2 4 3 5 7 8 8 10 10 10 14 12 11 11 3 2 2 3 5 6 6
8 6 4 4 4 3 3 3 3 3 3 4 8 8 7 3 7 12 12 11 5 6 4 5 5 6 8 9 9 10 10 10 10 12 12 10 11 3 3 5 5 7 6
7 6 6 6 6 5 3 2 2 2 0 1 1 6 7 7 11 13 11 1 2 5 6 6 5 6 7 8 9 9 10 10 9 10 11 11 11 11 7 5 7 10 9
8 8 6 5 3 3 2 2 1 1 1 1 1 1 3 5 3 5 3 2 2 3 4 6 7 6 7 8 8 9 9 10 10 10 11 11 10 12 7 2 4 5 6
5 5 5 4 3 3 2 1 1 1 1 1 1 4 6 1 3 5 2 2 3 3 4 6 6 6 7 7 8 9 10 9 10 10 9 11 11 11 11 11 7 7 7
6 4 3 3 2 2 2 2 2 2 2 2 1 1 3 2 3 2 3 2 2 3 3 5 6 7 7 7 8 9 9 10 10 10 10 10 10 11 10 10 13 4 4
4 3 2 3 2 3 2 2 1 2 2 3 3 3 3 2 2 2 3 2 2 2 3 5 6 6 7 7 8 8 9 9 10 10 11 11 10 11 10 11 10 6 5
3 3 2 2 2 2 3 1 2 3 2 2 3 3 3 2 2 3 3 2 2 3 3 4 6 9 9 8 8 9 10 10 10 11 10 10 12 12 10 10 11 14 6
2 2 2 2 2 1 2 2 2 2 3 3 4 4 4 4 4 3 3 3 3 4 5 7 7 9 11 14 15 16 15 15 12 15 11 12 13 15 13 11 12 10 6
3 2 1 2 2 3 3 3 3 3 3 3 3 4 5 5 5 4 4 4 4 6 8 7 9 13 16 13 15 17 17 18 16 17 12 10 11 10 10 11 14 9 8
Wind_Direction
201 160 180 193 197 155 139 116 109 109 121 126 131 135 141 137 139 129 121 123 136 161 187 212 242 253 260 250 265 256 243 236 259 266 241 242 253 242 247 207 196 197 213
189 177 170 139 132 91 82 95 112 114 102 121 132 134 125 125 120 124 136 152 170 195 217 244 258 264 256 251 241 251 247 248 248 268 257 253 242 238 219 211 212 202 198
105 111 101 99 86 86 81 81 84 96 108 116 123 126 133 132 132 137 151 163 179 207 239 257 271 284 277 270 254 253 251 256 245 251 263 241 237 228 246 233 201 209 220
105 106 106 98 96 95 98 98 104 108 111 111 119 126 125 128 141 148 159 172 208 241 264 281 278 279 271 265 265 258 257 257 263 267 271 266 248 251 240 221 254 198 245
94 95 101 100 100 105 104 103 104 106 111 118 120 126 137 140 146 131 155 207 234 278 273 267 265 254 255 255 264 261 263 269 270 274 273 276 274 265 238 254 232 240 251
103 110 109 114 122 118 116 118 117 126 126 130 128 121 120 125 143 175 194 195 263 270 276 301 304 304 292 275 268 265 264 268 267 262 264 265 269 265 249 222 222 253 272
109 119 132 126 121 126 134 138 130 125 127 115 122 136 161 167 170 186 187 254 281 297 288 291 298 303 315 312 317 324 306 278 259 267 272 269 271 266 267 191 195 193 239
135 130 124 132 130 121 115 117 125 123 124 142 154 169 188 111 103 80 98 259 324 335 336 333 332 334 338 346 331 319 311 306 304 291 245 256 258 256 238 189 202 211 222
132 135 131 119 121 127 126 121 120 135 147 170 166 148 95 87 91 69 39 38 9 341 332 340 339 330 326 338 328 318 311 308 307 307 311 302 283 248 204 175 164 158 253
136 127 134 142 135 129 139 152 164 152 116 93 90 79 98 102 87 66 47 39 15 358 331 318 315 315 324 326 320 312 303 301 301 298 300 293 268 236 212 194 208 196 187
132 137 129 135 136 138 122 128 128 98 93 82 75 61 79 81 83 71 55 46 23 331 322 321 319 317 317 313 306 295 282 287 290 290 292 287 284 226 211 205 195 186 209
130 132 138 133 135 130 121 112 100 97 106 110 117 95 93 76 112 69 51 29 356 334 325 316 312 315 312 308 306 294 287 282 276 278 279 284 278 258 231 202 188 194 205
143 133 127 131 124 122 111 118 98 92 95 97 98 91 84 51 128 49 28 4 345 336 320 317 315 313 309 310 317 321 322 303 270 263 265 267 269 269 200 185 183 186 206
134 134 134 122 115 100 94 87 88 72 74 90 82 65 56 17 47 25 5 340 333 332 324 311 299 293 310 323 333 329 333 323 326 262 268 275 271 242 189 164 187 190 160
136 131 117 124 119 101 67 50 92 58 55 46 71 58 65 16 47 0 334 325 317 314 310 302 300 333 329 331 333 332 334 334 333 321 277 269 252 181 185 206 178 167 193
130 118 107 105 103 133 130 111 71 124 118 107 100 87 61 79 1 337 330 320 316 314 302 301 325 329 331 330 331 333 333 333 337 329 310 309 338 245 215 185 168 173 189
98 109 91 111 119 95 82 128 141 121 141 158 153 154 155 148 336 327 323 316 312 304 300 313 321 328 329 329 333 330 328 332 329 332 326 317 261 246 224 216 203 194 205
91 118 113 89 88 92 81 67 54 101 165 176 193 197 165 117 349 331 314 311 321 337 321 323 331 335 330 334 332 327 325 327 332 325 326 321 313 223 235 229 216 206 200
102 74 76 68 49 48 66 84 78 94 131 8 26 190 139 53 9 332 318 315 309 318 325 333 330 327 330 326 323 321 324 323 327 322 319 322 335 301 255 225 240 206 195
80 70 93 111 126 97 77 46 72 78 1 318 34 37 51 36 18 302 286 318 313 313 337 330 323 325 322 321 320 323 323 324 326 323 323 325 336 333 311 228 246 230 186
80 65 55 76 80 74 39 26 37 9 307 319 9 113 131 105 280 274 321 320 341 341 329 317 323 324 321 320 321 328 319 321 320 316 323 324 332 328 327 328 286 228 177
86 98 81 71 96 101 44 351 7 335 298 304 351 62 203 196 265 326 322 331 319 313 321 325 320 317 315 322 324 314 310 316 311 320 320 319 321 320 321 316 307 156 166
82 88 119 116 44 87 221 250 324 298 349 357 339 318 312 310 326 318 317 307 316 331 323 319 308 316 323 309 299 304 309 309 314 308 306 309 316 313 312 308 312 267 177
86 71 52 70 63 35 310 348 336 299 262 285 297 313 313 325 318 307 299 315 325 319 308 317 324 307 302 305 312 307 301 297 291 290 306 311 301 299 297 303 298 298 172
74 54 40 0 333 284 330 292 301 327 317 327 321 324 330 320 315 325 325 328 320 306 337 317 300 312 318 311 301 294 291 295 295 290 289 284 281 284 286 287 288 289 229
46 38 356 321 317 327 331 330 325 326 329 330 338 334 318 320 328 323 324 308 324 334 315 313 313 308 307 302 301 300 298 294 289 283 278 271 278 279 277 278 286 290 226